EW3209 Weather Reports


Display with metric or nautical units.
time (UTC)temp
F
wind
direction
speed
MPH
gust
MPH
rain 1hr
in
rain 24hr
in
rain mn
in
humidity
%
barometer
mb
20190424084126 61 231 0.0 0.0 0.00 0.00 0.00 80 1012.2
20190424083625 61 359 0.0 0.0 0.00 0.00 0.00 80 1012.2
20190424083124 62 359 0.0 0.0 0.00 0.00 0.00 80 1012.5
20190424082623 62 359 0.0 0.0 0.00 0.00 0.00 79 1012.5
20190424082122 62 359 0.0 0.0 0.00 0.00 0.00 79 1012.5
20190424081621 62 359 0.0 0.0 0.00 0.00 0.00 79 1012.5
20190424081121 62 229 0.0 0.0 0.00 0.00 0.00 79 1012.5
20190424080620 62 359 0.0 0.0 0.00 0.00 0.00 78 1012.5
20190424080119 62 359 0.0 0.0 0.00 0.00 0.00 78 1012.5
20190424075618 62 359 0.0 0.0 0.00 0.00 0.00 78 1012.5
20190424075117 63 229 0.0 0.0 0.00 0.00 0.00 78 1012.5
20190424074616 63 359 0.0 0.0 0.00 0.00 0.00 78 1012.5
20190424074115 63 359 0.0 0.0 0.00 0.00 0.00 78 1012.5
20190424073615 63 359 0.0 0.0 0.00 0.00 0.00 77 1012.5
20190424073114 63 359 0.0 0.0 0.00 0.00 0.00 77 1012.5
20190424072613 63 359 0.0 0.0 0.00 0.00 0.00 77 1012.2
20190424072112 63 359 0.0 0.0 0.00 0.00 0.00 77 1012.5
20190424071611 63 240 0.0 0.0 0.00 0.00 0.00 77 1012.2
20190424071111 63 233 0.0 0.0 0.00 0.00 0.00 77 1012.2
20190424070611 63 233 0.0 0.0 0.00 0.00 0.00 76 1012.2
20190424070109 63 228 0.0 0.0 0.00 0.00 0.00 76 1012.2
20190424065608 63 234 0.0 0.0 0.00 0.00 0.00 76 1012.2
20190424065107 63 231 0.0 0.0 0.00 0.00 0.00 76 1012.2
20190424064607 63 239 0.0 0.0 0.00 0.00 0.00 76 1012.2
20190424064106 63 359 0.0 0.0 0.00 0.00 0.00 75 1012.2
20190424063605 63 233 0.0 0.0 0.00 0.00 0.00 75 1012.2
20190424063104 64 227 0.0 0.0 0.00 0.00 0.00 75 1012.2
20190424062603 64 235 0.0 0.0 0.00 0.00 0.00 74 1012.2
20190424062102 64 359 0.0 0.0 0.00 0.00 0.00 74 1012.5
20190424061602 64 359 0.0 0.0 0.00 0.00 0.00 74 1012.2
20190424061101 64 359 0.0 0.0 0.00 0.00 0.00 74 1012.2
20190424060600 64 233 0.0 0.0 0.00 0.00 0.00 73 1012.5
20190424060059 65 359 0.0 0.0 0.00 0.00 0.00 73 1012.5
20190424055558 65 232 0.0 0.0 0.00 0.00 0.00 73 1012.5
20190424055057 65 359 0.0 0.0 0.00 0.00 0.00 73 1012.5
20190424054556 65 228 0.0 0.0 0.00 0.00 0.00 73 1012.5
20190424054054 65 228 0.0 0.0 0.00 0.00 0.00 73 1012.5
20190424053553 65 239 0.0 0.0 0.00 0.00 0.00 73 1012.5
20190424053053 65 230 0.0 0.0 0.00 0.00 0.00 73 1012.5
20190424052552 65 359 0.0 0.0 0.00 0.00 0.00 72 1012.5
20190424052051 65 359 0.0 0.0 0.00 0.00 0.00 71 1012.5
20190424051550 66 359 0.0 0.0 0.00 0.00 0.00 71 1012.5
20190424051049 66 231 0.0 0.0 0.00 0.00 0.00 71 1012.5
20190424050548 66 236 0.0 0.0 0.00 0.00 0.00 70 1012.5
20190424050047 66 359 0.0 0.0 0.00 0.00 0.00 70 1012.5
20190424045546 66 230 0.0 0.0 0.00 0.00 0.00 70 1012.5
20190424045045 66 359 0.0 0.0 0.00 0.00 0.00 70 1012.5
20190424044544 67 231 0.0 0.0 0.00 0.00 0.00 69 1012.5
20190424044043 67 359 0.0 0.0 0.00 0.00 0.00 69 1012.2
20190424043542 67 230 0.0 0.0 0.00 0.00 0.00 68 1012.2
20190424043041 67 237 0.0 0.0 0.00 0.00 0.00 68 1012.2
20190424042541 67 359 0.0 0.0 0.00 0.00 0.00 68 1012.2
20190424042040 68 243 0.0 0.0 0.00 0.00 0.00 67 1012.2
20190424041538 68 233 0.0 0.0 0.00 0.00 0.00 67 1012.2
20190424041038 68 359 0.0 0.0 0.00 0.00 0.00 67 1012.2
20190424040537 68 359 0.0 0.0 0.00 0.00 0.00 67 1012.2
20190424040036 69 241 0.0 0.0 0.00 0.00 0.00 67 1011.9
20190424035535 69 251 0.0 0.0 0.00 0.00 0.00 67 1011.9
20190424035034 69 260 0.0 0.0 0.00 0.00 0.00 66 1011.9
20190424034533 70 359 0.0 0.0 0.00 0.00 0.00 65 1011.9
20190424034032 70 253 0.0 0.0 0.00 0.00 0.00 65 1011.9
20190424033532 70 359 0.0 0.0 0.00 0.00 0.00 64 1011.5
20190424033031 71 256 0.0 0.0 0.00 0.00 0.00 63 1011.5
20190424032530 71 359 0.0 0.0 0.00 0.00 0.00 62 1011.5
20190424032030 72 359 0.0 0.0 0.00 0.00 0.00 62 1011.5
20190424031529 73 201 0.0 0.0 0.00 0.00 0.00 61 1011.5
20190424031028 74 203 0.0 2.0 0.00 0.00 0.00 59 1011.5
20190424030527 75 221 2.0 2.0 0.00 0.00 0.00 57 1011.5
20190424030026 76 229 0.0 0.0 0.00 0.00 0.00 57 1011.5
20190424025525 77 200 0.0 0.0 0.00 0.00 0.00 54 1011.2
20190424025024 78 183 0.0 0.0 0.00 0.00 0.00 52 1011.2
20190424024523 78 359 0.0 0.0 0.00 0.00 0.00 52 1011.2
20190424024022 79 359 0.0 0.0 0.00 0.00 0.00 50 1011.2
20190424023521 80 359 0.0 3.0 0.00 0.00 0.00 49 1011.2
20190424023020 81 359 2.0 3.0 0.00 0.00 0.00 48 1011.2
20190424022519 81 195 0.0 0.0 0.00 0.00 0.00 46 1011.2
20190424022018 82 201 0.0 2.0 0.00 0.00 0.00 45 1011.2
20190424021517 83 201 0.0 2.0 0.00 0.00 0.00 45 1011.2
20190424021016 84 359 0.0 2.0 0.00 0.00 0.00 46 1011.2
20190424020515 84 233 1.0 2.0 0.00 0.00 0.00 45 1010.8
20190424020014 84 204 0.0 2.0 0.00 0.00 0.00 42 1010.8
20190424015513 85 214 0.0 2.0 0.00 0.00 0.00 43 1011.2
20190424015012 86 219 1.0 2.0 0.00 0.00 0.00 42 1011.2
20190424014511 86 190 0.0 2.0 0.00 0.00 0.00 42 1011.2
20190424014010 87 170 2.0 2.0 0.00 0.00 0.00 42 1011.2
20190424013510 88 193 0.0 1.0 0.00 0.00 0.00 40 1011.2
20190424013008 88 359 0.0 3.0 0.00 0.00 0.00 39 1011.2
20190424012507 88 191 2.0 3.0 0.00 0.00 0.00 36 1011.2
20190424012006 88 193 1.0 2.0 0.00 0.00 0.00 37 1011.2
20190424011505 88 188 1.0 2.0 0.00 0.00 0.00 37 1011.2
20190424011004 88 190 0.0 1.0 0.00 0.00 0.00 37 1011.2
20190424010503 88 172 0.0 1.0 0.00 0.00 0.00 37 1011.2
20190424010003 88 194 1.0 3.0 0.00 0.00 0.00 38 1011.2
20190424005501 88 193 2.0 3.0 0.00 0.00 0.00 38 1011.5
20190424005000 88 164 2.0 3.0 0.00 0.00 0.00 37 1011.5
20190424004459 89 124 1.0 3.0 0.00 0.00 0.00 36 1011.5
20190424003958 89 283 1.0 3.0 0.00 0.00 0.00 36 1011.5
20190424003457 89 213 1.0 3.0 0.00 0.00 0.00 35 1011.5
20190424002956 89 193 2.0 3.0 0.00 0.00 0.00 36 1011.5
20190424002456 88 239 1.0 4.0 0.00 0.00 0.00 36 1011.5
20190424001954 89 204 2.0 5.0 0.00 0.00 0.00 34 1011.5
20190424001454 89 206 2.0 5.0 0.00 0.00 0.00 34 1011.5
20190424000953 90 214 2.0 4.0 0.00 0.00 0.00 34 1011.9
20190424000452 90 215 2.0 4.0 0.00 0.00 0.00 34 1011.5
20190423235950 90 210 1.0 4.0 0.00 0.00 0.00 33 1011.5
20190423235450 90 91 1.0 3.0 0.00 0.00 0.00 34 1011.9
20190423234949 90 204 2.0 4.0 0.00 0.00 0.00 33 1011.9
20190423234448 90 219 2.0 4.0 0.00 0.00 0.00 33 1011.9
20190423233947 90 166 3.0 3.0 0.00 0.00 0.00 32 1011.9
20190423233446 90 185 2.0 6.0 0.00 0.00 0.00 32 1011.9
20190423232945 90 192 2.0 6.0 0.00 0.00 0.00 32 1011.9
20190423232444 91 221 3.0 5.0 0.00 0.00 0.00 33 1011.9
20190423231943 90 179 2.0 3.0 0.00 0.00 0.00 32 1011.9
20190423231442 90 171 1.0 3.0 0.00 0.00 0.00 31 1012.2
20190423230941 90 196 2.0 4.0 0.00 0.00 0.00 33 1012.2
20190423230440 90 188 2.0 4.0 0.00 0.00 0.00 32 1012.2
20190423225939 90 203 2.0 6.0 0.00 0.00 0.00 32 1012.2
20190423225438 90 213 2.0 6.0 0.00 0.00 0.00 31 1012.2
20190423224938 90 201 3.0 5.0 0.00 0.00 0.00 32 1012.2
20190423224437 90 184 2.0 6.0 0.00 0.00 0.00 32 1012.2
20190423223936 90 207 2.0 6.0 0.00 0.00 0.00 29 1012.2
20190423223436 90 204 2.0 6.0 0.00 0.00 0.00 28 1012.2
20190423222935 90 214 3.0 8.0 0.00 0.00 0.00 28 1012.2
20190423222434 90 184 2.0 8.0 0.00 0.00 0.00 28 1012.2
20190423221933 89 213 5.0 9.0 0.00 0.00 0.00 31 1012.2
20190423221432 90 215 5.0 12.0 0.00 0.00 0.00 33 1012.2
20190423220931 89 264 5.0 12.0 0.00 0.00 0.00 33 1012.5
20190423220430 89 221 5.0 12.0 0.00 0.00 0.00 33 1012.5
20190423215930 89 250 3.0 9.0 0.00 0.00 0.00 33 1012.5
20190423215429 90 278 3.0 9.0 0.00 0.00 0.00 32 1012.5
20190423214928 90 244 4.0 9.0 0.00 0.00 0.00 33 1012.5
20190423214427 90 249 6.0 10.0 0.00 0.00 0.00 33 1012.5
20190423213926 91 272 4.0 10.0 0.00 0.00 0.00 33 1012.5
20190423213425 91 248 5.0 10.0 0.00 0.00 0.00 33 1012.5
20190423212924 90 227 3.0 7.0 0.00 0.00 0.00 33 1012.5
20190423212423 90 232 2.0 7.0 0.00 0.00 0.00 31 1012.5
20190423211923 90 292 3.0 7.0 0.00 0.00 0.00 32 1012.9
20190423211422 89 277 4.0 8.0 0.00 0.00 0.00 32 1012.9
20190423210919 89 249 1.0 8.0 0.00 0.00 0.00 34 1012.9
20190423210418 89 272 4.0 8.0 0.00 0.00 0.00 34 1012.9
20190423205917 89 359 0.0 6.0 0.00 0.00 0.00 35 1012.9
20190423205416 89 260 3.0 7.0 0.00 0.00 0.00 35 1013.2
20190423204916 88 260 2.0 7.0 0.00 0.00 0.00 35 1012.9
20190423204415 88 245 2.0 7.0 0.00 0.00 0.00 36 1012.9
20190423203914 88 229 2.0 6.0 0.00 0.00 0.00 37 1012.9
20190423203413 88 224 1.0 5.0 0.00 0.00 0.00 37 1012.9
20190423202912 88 305 2.0 5.0 0.00 0.00 0.00 35 1013.2
20190423202411 87 246 1.0 5.0 0.00 0.00 0.00 36 1013.2
20190423201910 87 297 2.0 5.0 0.00 0.00 0.00 34 1013.2
20190423201409 87 276 1.0 5.0 0.00 0.00 0.00 36 1013.2
20190423200908 86 249 1.0 5.0 0.00 0.00 0.00 36 1013.2
20190423200407 86 257 2.0 5.0 0.00 0.00 0.00 38 1013.2
20190423195907 86 297 2.0 5.0 0.00 0.00 0.00 38 1013.5
20190423195406 86 330 3.0 5.0 0.00 0.00 0.00 37 1013.5
20190423194905 86 266 2.0 4.0 0.00 0.00 0.00 38 1013.5
20190423194404 85 240 0.0 5.0 0.00 0.00 0.00 39 1013.5
20190423193903 85 298 2.0 5.0 0.00 0.00 0.00 39 1013.5
20190423193402 85 271 3.0 5.0 0.00 0.00 0.00 39 1013.9
20190423192901 86 250 3.0 4.0 0.00 0.00 0.00 39 1013.9
20190423192400 85 236 2.0 4.0 0.00 0.00 0.00 39 1013.9
20190423191859 84 244 1.0 4.0 0.00 0.00 0.00 40 1013.9
20190423191358 83 190 0.0 5.0 0.00 0.00 0.00 42 1014.2
20190423190857 83 223 2.0 6.0 0.00 0.00 0.00 43 1014.2
20190423190357 83 258 3.0 6.0 0.00 0.00 0.00 43 1014.2
20190423185856 84 260 2.0 5.0 0.00 0.00 0.00 44 1014.2
20190423185355 83 247 1.0 5.0 0.00 0.00 0.00 44 1014.2
20190423184855 83 256 0.0 5.0 0.00 0.00 0.00 43 1014.6
20190423184354 83 253 2.0 6.0 0.00 0.00 0.00 44 1014.6
20190423183853 82 292 1.0 6.0 0.00 0.00 0.00 44 1014.6
20190423183352 82 359 0.0 6.0 0.00 0.00 0.00 43 1014.6
20190423182851 81 312 2.0 5.0 0.00 0.00 0.00 44 1014.6
20190423182350 81 259 0.0 6.0 0.00 0.00 0.00 44 1014.6
20190423181848 81 252 4.0 6.0 0.00 0.00 0.00 44 1014.6
20190423181348 80 258 0.0 6.0 0.00 0.00 0.00 43 1014.6
20190423180847 80 266 4.0 6.0 0.00 0.00 0.00 44 1014.6
20190423180346 80 216 1.0 3.0 0.00 0.00 0.00 45 1014.9
20190423175845 80 260 0.0 3.0 0.00 0.00 0.00 44 1014.9
20190423175344 80 307 1.0 3.0 0.00 0.00 0.00 44 1014.9
20190423174843 80 315 2.0 3.0 0.00 0.00 0.00 44 1014.9
20190423174342 79 359 0.0 6.0 0.00 0.00 0.00 44 1014.9
20190423173841 79 18 0.0 6.0 0.00 0.00 0.00 44 1014.6
20190423173340 78 331 1.0 6.0 0.00 0.00 0.00 43 1014.9
20190423172839 78 8 0.0 7.0 0.00 0.00 0.00 45 1014.9
20190423172338 77 289 2.0 7.0 0.00 0.00 0.00 45 1014.9
20190423171837 77 301 4.0 7.0 0.00 0.00 0.00 44 1014.9
20190423171336 77 349 2.0 7.0 0.00 0.00 0.00 46 1014.9
20190423170835 77 358 2.0 6.0 0.00 0.00 0.00 45 1014.9
20190423170334 76 351 3.0 6.0 0.00 0.00 0.00 45 1014.9
20190423165834 76 315 2.0 8.0 0.00 0.00 0.00 47 1014.9
20190423165333 75 325 3.0 8.0 0.00 0.00 0.00 47 1014.9
20190423164832 75 349 4.0 8.0 0.00 0.00 0.00 48 1014.9
20190423164331 74 0 1.0 6.0 0.00 0.00 0.00 49 1014.9
20190423163830 73 328 3.0 6.0 0.00 0.00 0.00 54 1014.9
20190423163329 72 263 0.0 1.0 0.00 0.00 0.00 60 1014.9
20190423162829 71 359 1.0 1.0 0.00 0.00 0.00 60 1014.9
20190423162328 70 236 0.0 1.0 0.00 0.00 0.00 62 1014.9
20190423161827 70 359 1.0 1.0 0.00 0.00 0.00 62 1014.9
20190423161326 69 359 0.0 0.0 0.00 0.00 0.00 63 1014.9
20190423160825 68 283 0.0 0.0 0.00 0.00 0.00 64 1014.9
20190423160324 68 277 0.0 0.0 0.00 0.00 0.00 66 1014.9
20190423155823 67 275 0.0 0.0 0.00 0.00 0.00 65 1014.9
20190423155322 66 276 0.0 0.0 0.00 0.00 0.00 65 1014.9
20190423154821 66 278 0.0 0.0 0.00 0.00 0.00 67 1014.9
20190423154320 65 359 0.0 0.0 0.00 0.00 0.00 69 1014.9
20190423153819 64 276 0.0 0.0 0.00 0.00 0.00 71 1015.2
20190423153318 63 275 0.0 0.0 0.00 0.00 0.00 73 1014.9
20190423152817 63 275 0.0 0.0 0.00 0.00 0.00 73 1014.9
20190423152316 62 289 0.0 0.0 0.00 0.00 0.00 74 1014.9
20190423151815 62 359 0.0 0.0 0.00 0.00 0.00 74 1014.9
20190423151315 62 359 0.0 0.0 0.00 0.00 0.00 75 1014.9
20190423150813 62 288 0.0 0.0 0.00 0.00 0.00 75 1014.9
20190423150313 61 295 0.0 0.0 0.00 0.00 0.00 76 1014.9
20190423145811 61 359 0.0 0.0 0.00 0.00 0.00 78 1014.9
20190423145310 60 292 0.0 0.0 0.00 0.00 0.00 79 1014.9
20190423144810 60 359 0.0 0.0 0.00 0.00 0.00 79 1014.9
20190423144309 59 285 0.0 0.0 0.00 0.00 0.00 79 1014.9
20190423143809 59 359 0.0 0.0 0.00 0.00 0.00 79 1014.9
20190423143308 59 359 0.0 0.0 0.00 0.00 0.00 80 1014.9
20190423142806 58 285 0.0 0.0 0.00 0.00 0.00 80 1014.9
20190423142305 58 286 0.0 0.0 0.00 0.00 0.00 80 1014.9
20190423141805 58 282 0.0 0.0 0.00 0.00 0.00 80 1014.6
20190423141304 58 287 0.0 0.0 0.00 0.00 0.00 80 1014.6
20190423140803 57 289 0.0 0.0 0.00 0.00 0.00 80 1014.6
20190423140302 57 359 0.0 0.0 0.00 0.00 0.00 81 1014.6
20190423135801 57 359 0.0 0.0 0.00 0.00 0.00 81 1014.6
20190423135300 56 287 0.0 0.0 0.00 0.00 0.00 82 1014.6
20190423134759 56 287 0.0 0.0 0.00 0.00 0.00 83 1014.6
20190423134258 56 359 0.0 0.0 0.00 0.00 0.00 83 1014.6
20190423133757 56 285 0.0 0.0 0.00 0.00 0.00 83 1014.6
20190423133256 56 359 0.0 0.0 0.00 0.00 0.00 83 1014.6
20190423132756 56 359 0.0 0.0 0.00 0.00 0.00 83 1014.2
20190423132254 56 359 0.0 0.0 0.00 0.00 0.00 83 1014.2
20190423131754 56 291 0.0 0.0 0.00 0.00 0.00 83 1014.2
20190423131253 56 292 0.0 0.0 0.00 0.00 0.00 83 1014.2
20190423130751 56 359 0.0 0.0 0.00 0.00 0.00 83 1014.2
20190423130251 56 359 0.0 0.0 0.00 0.00 0.00 83 1014.2
20190423125750 56 359 0.0 0.0 0.00 0.00 0.00 83 1014.2
20190423125249 56 281 0.0 0.0 0.00 0.00 0.00 83 1014.2
20190423124748 56 359 0.0 0.0 0.00 0.00 0.00 83 1014.2
20190423124248 56 283 0.0 0.0 0.00 0.00 0.00 82 1014.2
20190423123747 56 359 0.0 0.0 0.00 0.00 0.00 82 1014.2
20190423123246 56 285 0.0 0.0 0.00 0.00 0.00 82 1013.9
20190423122745 56 359 0.0 0.0 0.00 0.00 0.00 82 1013.9
20190423122244 56 287 0.0 0.0 0.00 0.00 0.00 81 1013.9
20190423121743 56 289 0.0 0.0 0.00 0.00 0.00 82 1013.9
20190423121242 56 284 0.0 0.0 0.00 0.00 0.00 82 1013.9
20190423120741 56 285 0.0 0.0 0.00 0.00 0.00 82 1014.2
20190423120240 56 359 0.0 0.0 0.00 0.00 0.00 82 1014.2
20190423115739 56 284 0.0 0.0 0.00 0.00 0.00 83 1014.2
20190423115238 56 359 0.0 0.0 0.00 0.00 0.00 82 1014.2
20190423114737 56 290 0.0 0.0 0.00 0.00 0.00 83 1014.2
20190423114236 57 359 0.0 0.0 0.00 0.00 0.00 83 1014.2
20190423113735 57 285 0.0 0.0 0.00 0.00 0.00 83 1014.2
20190423113234 57 285 0.0 0.0 0.00 0.00 0.00 83 1014.2
20190423112733 57 292 0.0 0.0 0.00 0.00 0.00 82 1014.2
20190423112232 57 359 0.0 0.0 0.00 0.00 0.00 82 1014.2
20190423111731 57 359 0.0 0.0 0.00 0.00 0.00 82 1014.2
20190423111230 57 283 0.0 0.0 0.00 0.00 0.00 83 1014.2
20190423110729 57 262 0.0 0.0 0.00 0.00 0.00 82 1014.2
20190423110229 57 262 0.0 0.0 0.00 0.00 0.00 82 1014.2
20190423105728 57 261 0.0 0.0 0.00 0.00 0.00 82 1014.2
20190423105226 58 260 0.0 0.0 0.00 0.00 0.00 81 1014.2
20190423104726 58 261 0.0 0.0 0.00 0.00 0.00 81 1014.6
20190423104224 58 359 0.0 0.0 0.00 0.00 0.00 82 1014.6
20190423103723 58 359 0.0 0.0 0.00 0.00 0.00 82 1014.6
20190423103223 58 256 0.0 0.0 0.00 0.00 0.00 82 1014.6
20190423102722 57 359 0.0 0.0 0.00 0.00 0.00 83 1014.6
20190423102221 57 262 0.0 0.0 0.00 0.00 0.00 84 1014.6
20190423101720 57 359 0.0 0.0 0.00 0.00 0.00 85 1014.6
20190423101219 57 260 0.0 0.0 0.00 0.00 0.00 86 1014.6
20190423100718 56 359 0.0 0.0 0.00 0.00 0.00 87 1014.6
20190423100217 56 359 0.0 0.0 0.00 0.00 0.00 87 1014.6
20190423095717 56 359 0.0 0.0 0.00 0.00 0.00 87 1014.6
20190423095215 56 359 0.0 0.0 0.00 0.00 0.00 87 1014.6
20190423094715 57 359 0.0 0.0 0.00 0.00 0.00 87 1014.6
20190423094214 57 359 0.0 0.0 0.00 0.00 0.00 87 1014.6
20190423093713 57 359 0.0 0.0 0.00 0.00 0.00 86 1014.6
20190423093212 57 251 0.0 0.0 0.00 0.00 0.00 86 1014.6
20190423092711 57 359 0.0 0.0 0.00 0.00 0.00 86 1014.6
20190423092210 57 359 0.0 0.0 0.00 0.00 0.00 86 1014.6
20190423091710 57 241 0.0 0.0 0.00 0.00 0.00 86 1014.9
20190423091209 57 359 0.0 0.0 0.00 0.00 0.00 85 1014.9
20190423090707 57 243 0.0 0.0 0.00 0.00 0.00 85 1014.9
20190423090206 57 247 0.0 0.0 0.00 0.00 0.00 85 1014.9
20190423085705 57 359 0.0 0.0 0.00 0.00 0.00 84 1014.9
20190423085205 57 245 0.0 0.0 0.00 0.00 0.00 84 1014.9
20190423084703 57 359 0.0 0.0 0.00 0.00 0.00 84 1014.9